Tracking 19484 objects as of 20-Jan-2019
HD Live streaming from Space Station
objects crossing your sky now

COSMOS 2215

Track COSMOS 2215 now!
10-day predictions
COSMOS 2215 is classified as:


NORAD ID: 22186
Int'l Code: 1992-068E
Perigee: 1,417.1 km
Apogee: 1,435.9 km
Inclination: 82.6 °
Period: 114.2 minutes
Semi major axis: 7797 km
RCS: 1.0707 m2 (large)
Launch date: October 20, 1992
Source: Commonwealth of Independent States (former USSR) (CIS)
Launch site: PLESETSK MISSILE AND SPACE COMPLEX (PKMTR)
aabbcc
Your satellite tracking list
Your tracking list is empty




NASA's NSSDC Master Catalog

Two Line Element Set (TLE):
1 22186U 92068E   19020.19619687  .00000033  00000-0  12819-3 0  9993
2 22186  82.6016 289.0853 0012039 167.4488 192.6904 12.60869071208148
Source of the keplerian elements: AFSPC